Terug naar catalogus

COSMOS 2251 DEB

ActiefVLEO
NORAD 36551·DEBRIS·🇷🇺 Russia

Gelanceerd Jun 16, 1993 vanaf Plesetsk Cosmodrome

Loading…

Volgende Passages (komende 24 uur)

TLE

VersSource: Space-Track

Epoch: Sep 14, 2026, 03:26 UTC

1 36551U 93036BDM 26257.14374396  .00019124  00000-0  10183-2 0  9992
2 36551  73.9007 161.7523 0031776  52.3407 308.0662 15.14741295710864

Volg COSMOS 2251 DEB in realtime met AllMySat

Download on the App Store